Lihue, HI

4:02 AM HST on November 23, 2017 (GMT -1000)
Lihue

Weather History for PHLI - January, 2014

Change the Weather History Date:

Tuesday, January 14, 2014

  Actual Average Record
Temperature  
Mean Temperature 72 °F 72 °F  
Max Temperature 80 °F 78 °F 85 °F (1981)
Min Temperature 64 °F 65 °F 55 °F (1969)
Degree Days  
Heating Degree Days 0 0  
Month to date heating degree days 0 0  
Since 1 July heating degree days 0 0  
Cooling Degree Days 7 7  
Month to date cooling degree days 99 98  
Year to date cooling degree days 99 98  
Growing Degree Days 22 (Base 50)    
Moisture  
Dew Point 65 °F    
Average Humidity 78    
Maximum Humidity 93    
Minimum Humidity 62    
Precipitation  
Precipitation T in 0.12 in 0.92 in (2013)
Month to date precipitation 0.85 1.79  
Year to date precipitation 0.85 1.79  
Snow  
Snow 0.00 in - - ()
Month to date snowfall 0.0  
Since 1 July snowfall 0.0  
Snow Depth 0.00 in    
Sea Level Pressure  
Sea Level Pressure 29.87 in    
Wind  
Wind Speed 8 mph (West)    
Max Wind Speed 16 mph    
Max Gust Speed 21 mph    
Visibility 10 miles    
Events      
T = Trace of Precipitation, MM = Missing Value Source: NWS Daily Summary

Daily Weather History Graph

Daily Weather History Graph

Search for Another Location

Airport or City:

Trip Planner

Search our weather history database for the weather conditions in past years. The results will help you decide how hot, cold, wet, or windy it might be!

Date:

Astronomy

Jan. 14, 2014 Rise Set
Actual Time 7:18 AM HST 6:14 PM HST
Civil Twilight 6:54 AM HST 6:38 PM HST
Nautical Twilight 6:27 AM HST 7:06 PM HST
Astronomical Twilight 6:00 AM HST 7:33 PM HST
Moon 5:25 PM HST (1/14) 6:04 AM HST (1/14)
Length of Visible Light 11h 43m
Length of Day
10h 55m
Waxing Gibbous, 99% of the Moon is Illuminated
Jan 14
Waxing Gibbous
Jan 15
Full
Jan 23
Last Quarter
Jan 30
New
Feb 6
First Quarter

Hourly Weather History & Observations

Time (HST) Temp. Dew Point Humidity Pressure Visibility Wind Dir Wind Speed Gust Speed Precip Events Conditions
12:53 AM 69.1 °F 66.0 °F 90% 29.88 in 10.0 mi WSW 5.8 mph - 0.00 in   Mostly Cloudy
1:53 AM 68.0 °F 66.0 °F 93% 29.87 in 10.0 mi WSW 5.8 mph - N/A   Mostly Cloudy
2:53 AM 66.0 °F 64.0 °F 93% 29.86 in 10.0 mi West 8.1 mph - N/A   Clear
3:53 AM 66.9 °F 64.0 °F 90% 29.85 in 10.0 mi West 6.9 mph - N/A   Clear
4:53 AM 66.9 °F 63.0 °F 87% 29.85 in 10.0 mi WNW 4.6 mph - N/A   Scattered Clouds
5:53 AM 64.9 °F 62.1 °F 90% 29.86 in 10.0 mi West 5.8 mph - N/A   Clear
6:53 AM 68.0 °F 64.0 °F 87% 29.87 in 10.0 mi SW 10.4 mph - N/A   Clear
7:53 AM 68.0 °F 64.0 °F 87% 29.88 in 10.0 mi West 4.6 mph - N/A   Clear
8:53 AM 73.0 °F 66.9 °F 81% 29.89 in 10.0 mi SW 13.8 mph - N/A   Clear
9:53 AM 75.9 °F 66.0 °F 71% 29.91 in 10.0 mi SW 13.8 mph - N/A   Clear
10:53 AM 79.0 °F 66.9 °F 66% 29.90 in 10.0 mi WSW 12.7 mph - N/A   Overcast
11:53 AM 78.1 °F 66.0 °F 66% 29.88 in 10.0 mi WSW 13.8 mph - N/A   Mostly Cloudy
12:53 PM 75.9 °F 64.9 °F 69% 29.86 in 10.0 mi NW 5.8 mph - N/A   Mostly Cloudy
1:53 PM 78.1 °F 66.9 °F 68% 29.83 in 10.0 mi SW 10.4 mph - 0.00 in   Mostly Cloudy
2:53 PM 78.1 °F 64.9 °F 64% 29.83 in 10.0 mi Variable 3.5 mph - N/A   Partly Cloudy
3:31 PM 75.2 °F 66.2 °F 73% 29.83 in 10.0 mi NNE 9.2 mph - N/A   Overcast
3:41 PM 77.0 °F 66.2 °F 69% 29.84 in 10.0 mi Calm Calm - N/A   Overcast
3:53 PM 75.9 °F 64.9 °F 69% 29.83 in 10.0 mi WNW 6.9 mph - N/A   Overcast
4:04 PM 75.2 °F 64.4 °F 69% 29.83 in 10.0 mi Variable 4.6 mph - N/A   Scattered Clouds
4:53 PM 75.9 °F 66.0 °F 71% 29.84 in 10.0 mi ENE 5.8 mph - N/A   Partly Cloudy
5:53 PM 73.9 °F 66.9 °F 79% 29.85 in 10.0 mi East 4.6 mph - N/A   Clear
6:53 PM 73.0 °F 66.9 °F 81% 29.86 in 10.0 mi Calm Calm - N/A   Clear
7:46 PM 69.8 °F 66.2 °F 88% 29.88 in 10.0 mi West 9.2 mph - N/A   Partly Cloudy
7:53 PM 70.0 °F 66.9 °F 90% 29.87 in 10.0 mi West 8.1 mph - N/A   Clear
8:53 PM 69.1 °F 66.0 °F 90% 29.88 in 10.0 mi WNW 5.8 mph - N/A   Clear
9:53 PM 68.0 °F 64.9 °F 90% 29.90 in 10.0 mi West 9.2 mph - N/A   Clear
10:53 PM 66.9 °F 64.9 °F 93% 29.89 in 10.0 mi West 6.9 mph - N/A   Clear
11:44 PM 66.2 °F 62.6 °F 88% 29.89 in 10.0 mi WSW 5.8 mph - N/A   Partly Cloudy
11:53 PM 64.9 °F 63.0 °F 93% 29.89 in 10.0 mi WSW 6.9 mph - N/A   Partly Cloudy